Weather in John Marshall Park

United States     34°12′36″N   117°18′10″W
temp.,
°C
wind,
m/s
gust,
m/s
humid.,
%
clouds,
%
prec.,
mm/h
press.,
hPa
HPBL,
m
18 may, tue
tue1823:00+10sse228741 0.0 101654
02:00+10sse228018 0.0 101676
05:00+10ese11769 0.0 101559
08:00+18n14360 0.0 1014499
11:00+26wnw24190 0.0 10121206
14:00+27sw45190 0.0 10101993
17:00+23ssw33330 0.0 1011783
20:00+15sse22560 0.0 101245
19 may, wed
wed1923:00+13se22610 0.0 101332
02:00+12se22700 0.0 101235
05:00+11ese22631 0.0 101128
08:00+16s32500 0.0 1011277
11:00+22ssw43280 0.0 1010741
14:00+23ssw65240 0.0 1009944
17:00+21s56320 0.0 1008843
20:00+14s33540 0.0 101099
20 may, thu
thu2023:00+11sse34780 0.0 1011122
02:00+9sse339035 0.0 101093
05:00+8sse349248 0.0 1011222
08:00+11s347424 0.0 1011409
11:00+16ssw55491 0.0 1010821
14:00+19ssw66330 0.0 10081147
17:00+18ssw68370 0.0 10071155
20:00+11ssw467316 0.0 1010400
21 may, fri
fri2123:00+9s349099 0.1 1011389
02:00+8sse239189 0.3 1011279
05:00+7s018957 0.3 1012158
08:00+10wsw13436 0.1 1013893
11:00+14ssw44342 0.1 10131827
14:00+16ssw763023 0.0 10122180
17:00+14ssw99385 0.0 10121581
20:00+8s46525 0.1 1015245
22 may, sat
sat2223:00+6sse22640 0.1 101786
02:00+4sse227612 0.0 101848
05:00+3se229019 0.0 101856
08:00+8s33590 0.0 1017416
11:00+13ssw44350 0.0 10161135
14:00+17sw54210 0.0 10141839
17:00+16ssw773042 0.0 10131505
20:00+9s346712 0.0 1016134